Flag for Congo Dem.Rep. Weather past 2 weeks in Kinshasa, Congo Dem.Rep.

Now
82 °F

Scattered clouds.


Feels Like: 88 °F
Forecast: 76 / 90 °F
Wind: 5 mph from East

Location: Brazzaville / Maya-Maya


UV Index: 3 (Moderate)

Visibility: N/A


Pressure: 29.80 "Hg

Humidity: 74%

Dew point: 73 °F

Location of KinshasaLocation

Historic Weather in Kinshasa

°F

Kinshasa temperature yesterday

Maximum temperature yesterday: 93 °F (at 3:00 PM)
Minimum temperature yesterday: 75 °F (at 3:00 AM)
Average temperature yesterday: 80 °F

Past Weeks' High & Low Weather Summary

 TemperatureHumidityPressure
High95 °F (Apr 18, 3:00 PM)100% (Apr 14, 6:00 AM)30.01 "Hg (Apr 14, 6:00 AM)
Low72 °F (Apr 14, 6:00 AM)44% (Apr 18, 2:00 PM)29.71 "Hg (Apr 17, 4:00 PM)
Average80 °F77%29.88 "Hg
* Reported Apr 9 1:00 PM — Apr 20 2:00 PM, Kinshasa, Weather by CustomWeather, © 2014

Note: Actual official high and low records may vary slightly from our data, if they occured in-between our weather recording intervals... More about our weather records

Advertising

Historic Weather Conditions — Data for Previous 24 hours

 ConditionsComfort  
Time TempWeatherWind HumidityBarometerVisibility
2:00 PM
Apr 20
82 °FPassing clouds.9 mph74%29.86 "HgN/A
1:00 PM79 °FScattered clouds.10 mph79%29.92 "HgN/A
12:00 PM75 °FLight rain. Overcast.2 mph89%29.92 "Hg4 mi
11:00 AM75 °FLight rain. Overcast.3 mph89%29.95 "Hg4 mi
10:00 AM77 °FLight rain. Partly sunny.6 mph83%30.01 "HgN/A
9:00 AM77 °FPartly sunny.5 mph83%29.98 "HgN/A
8:00 AM75 °FScattered clouds.5 mph89%29.95 "HgN/A
7:00 AM73 °FPassing clouds.6 mph94%29.92 "Hg6 mi
6:00 AM75 °FPassing clouds.6 mph94%29.92 "Hg6 mi
4:00 AM75 °FThunderstorms. Overcast.5 mph89%29.92 "Hg5 mi
3:00 AM75 °FThunderstorms. Passing clouds.3 mph89%29.92 "Hg5 mi
2:00 AM75 °FThunderstorms. Passing clouds.3 mph89%29.92 "Hg5 mi
1:00 AM75 °FThunderstorms. Passing clouds.5 mph89%29.92 "Hg5 mi
12:00 AM75 °FThunderstorms. Passing clouds.2 mph89%29.92 "Hg5 mi
11:00 PM
Apr 19
75 °FThunderstorms. Passing clouds.3 mph94%29.92 "Hg5 mi
10:00 PM75 °FLight rain. Passing clouds.3 mph89%29.95 "Hg5 mi
9:00 PM77 °FThunderstorms. Passing clouds.3 mph83%29.89 "Hg5 mi
8:00 PM77 °FThunderstorms. Passing clouds.6 mph89%29.89 "Hg5 mi
7:00 PM79 °FThunderstorms. Passing clouds.3 mph84%29.86 "Hg5 mi
6:00 PM79 °FThunderstorms. Partly cloudy.7 mph84%29.83 "Hg5 mi
5:00 PM79 °FThunderstorms. Scattered clouds.21 mph79%29.80 "Hg4 mi
4:00 PM91 °FScattered clouds.9 mph52%29.74 "Hg6 mi
Weather by CustomWeather, © 2014

See weather overview